Regional Weather Roundup
Issued by NWS Goodland, KS

Home | Current Version | Previous Version | Text Only | Print | Product List | Glossary On
Versions: 1 2 3 4 5 6 7 8 9 10 11 12 13 14 15 16 17 18 19 20 21 22 23 24 25 26 27 28 29 30 31 32 33 34 35 36 37 38 39 40 41 42 43 44 45 46 47 48 49 50
000
ASUS43 KGLD 301108
RWRGLD

GOODLAND FORECAST AREA HOURLY WEATHER ROUNDUP
NATIONAL WEATHER SERVICE GOODLAND KS
500 AM MDT SAT MAY 30 2015

...OFFICIAL OBSERVATIONS...

CITY           SKY/WX    TMP DP  RH WIND       PRES   REMARKS
GOODLAND KS    CLOUDY    47  45  93 N13       30.29R
HILL CITY KS   CLEAR     48  43  82 NW9       30.25R
IMPERIAL NEB   CLEAR     43  39  86 NW9       30.29F
MCCOOK NEB     CLEAR     44  41  89 NW9       30.27S
AKRON CO       CLOUDY    47  43  86 NW3       30.30F
BURLINGTON CO  CLOUDY    48  45  89 N10       30.28F
LIMON CO       CLEAR     40  40 100 NW7       30.31S
$$

...UNOFFICIAL OBSERVATIONS...

CITY           SKY/WX    TMP DP  RH WIND       PRES   REMARKS
COLBY KS       CLOUDY    48  46  93 N10       30.30R
GOVE KS          N/A     50  32  50 MISG        N/A
NORTON KS      CLEAR     45  39  81 NW12      30.25R
SHARON SPRINGS   N/A     50  48  92 MISG        N/A
KIT CARSON CO    N/A     45  42  89 MISG        N/A
$$



USA.gov is the U.S. government's official web portal to all federal, state and local government web resources and services.